カタログに戻る

COSMOS 1275 DEB

運用中PO
NORAD 13815·DEBRIS·🇷🇺 Russia

打ち上げ Jun 4, 1981 から Plesetsk Cosmodrome

Loading…

次のパス (今後24時間)

TLE

最新Source: Space-Track

元期: Sep 14, 2026, 11:46 UTC

1 13815U 81053HK  26257.49040687  .00001169  00000-0  10158-2 0  9999
2 13815  83.0268 166.8308 0106938 176.3527 308.6374 13.82694170181829

AllMySatでCOSMOS 1275 DEBをリアルタイム追跡

Download on the App Store